Montreal Mirabel, Quebec

7:52 AM EDT on July 28, 2017 (GMT -0400)
Montreal Mirabel

Weather History for CYMX - October, 2014

Change the Weather History Date:

Sunday, October 19, 2014

  Actual Average Record
Temperature  
Mean Temperature 40 °F -  
Max Temperature 44 °F 49 °F 73 °F (2007)
Min Temperature 37 °F 33 °F 21 °F (2015)
Degree Days  
Heating Degree Days 24    
Moisture  
Dew Point 28 °F    
Average Humidity 60    
Maximum Humidity 81    
Minimum Humidity 42    
Precipitation  
Precipitation 0.00 in - - ()
Sea Level Pressure  
Sea Level Pressure 29.90 in    
Wind  
Wind Speed 6 mph ()    
Max Wind Speed 13 mph    
Max Gust Speed 22 mph    
Averages and records for this station are not official NWS values.
T = Trace of Precipitation, MM = Missing Value Source: Averaged Metar Reports

Daily Weather History Graph

Daily Weather History Graph

Search for Another Location

Airport or City:

Trip Planner

Search our weather history database for the weather conditions in past years. The results will help you decide how hot, cold, wet, or windy it might be!

Date:

Astronomy

Oct. 19, 2014 Rise Set
Actual Time 7:17 AM EDT 6:03 PM EDT
Civil Twilight 6:47 AM EDT 6:33 PM EDT
Nautical Twilight 6:13 AM EDT 7:08 PM EDT
Astronomical Twilight 5:38 AM EDT 7:42 PM EDT
Moon 2:56 AM EDT (10/19) 4:04 PM EDT (10/19)
Length of Visible Light 11h 45m
Length of Day
10h 45m
Waning Crescent, 17% of the Moon is Illuminated
Oct 19
Waning Crescent
Oct 23
New
Oct 30
First Quarter
Nov 6
Full
Nov 14
Last Quarter

Hourly Weather History & Observations

Time (EDT) Temp. Windchill Dew Point Humidity Pressure Visibility Wind Dir Wind Speed Gust Speed Precip Events Conditions
12:00 AM 42.8 °F 39.3 °F 32.0 °F 66% 29.75 in 25.0 mi NW 5.8 mph - N/A   Mostly Cloudy
1:00 AM 41.0 °F 38.0 °F 33.8 °F 76% 29.76 in 25.0 mi NW 4.6 mph - N/A   Mostly Cloudy
2:00 AM 39.2 °F 37.0 °F 32.0 °F 75% 29.80 in 25.0 mi NNW 3.5 mph - N/A   Mostly Cloudy
3:00 AM 39.2 °F - 32.0 °F 75% 29.81 in 25.0 mi Variable 2.3 mph - N/A   Mostly Cloudy
4:00 AM 39.2 °F 34.2 °F 32.0 °F 75% 29.83 in 25.0 mi WNW 6.9 mph - N/A   Mostly Cloudy
5:00 AM 39.2 °F 37.0 °F 32.0 °F 75% 29.84 in 25.0 mi WNW 3.5 mph - N/A   Mostly Cloudy
6:00 AM 39.2 °F 34.2 °F 32.0 °F 75% 29.85 in 25.0 mi WNW 6.9 mph - N/A   Overcast
7:00 AM 37.4 °F 33.8 °F 32.0 °F 81% 29.88 in 25.0 mi West 4.6 mph - N/A   Overcast
8:00 AM 39.2 °F 35.0 °F 32.0 °F 75% 29.91 in 45.0 mi West 5.8 mph - N/A   Mostly Cloudy
9:00 AM 39.2 °F 33.6 °F 30.2 °F 70% 29.91 in 45.0 mi West 8.1 mph - N/A   Mostly Cloudy
10:00 AM 41.0 °F 35.8 °F 28.4 °F 61% 29.92 in 45.0 mi WNW 8.1 mph 18.4 mph N/A   Mostly Cloudy
11:00 AM 42.8 °F 36.2 °F 28.4 °F 57% 29.92 in 45.0 mi NW 12.7 mph 21.9 mph N/A   Mostly Cloudy
12:00 PM 44.6 °F 38.4 °F 28.4 °F 53% 29.94 in 45.0 mi NNW 12.7 mph - N/A   Mostly Cloudy
1:00 PM 42.8 °F 36.2 °F 24.8 °F 49% 29.93 in 45.0 mi NW 12.7 mph 18.4 mph N/A   Mostly Cloudy
2:00 PM 42.8 °F 36.6 °F 24.8 °F 49% 29.93 in 45.0 mi NW 11.5 mph 19.6 mph N/A   Mostly Cloudy
3:00 PM 44.6 °F 40.7 °F 26.6 °F 49% 29.92 in 45.0 mi West 6.9 mph 18.4 mph N/A   Mostly Cloudy
4:00 PM 44.6 °F 39.7 °F 26.6 °F 49% 29.92 in 45.0 mi West 9.2 mph - N/A   Mostly Cloudy
5:00 PM 44.6 °F 40.7 °F 24.8 °F 46% 29.94 in 45.0 mi West 6.9 mph - N/A   Mostly Cloudy
6:00 PM 42.8 °F 38.0 °F 21.2 °F 42% 29.96 in 45.0 mi WNW 8.1 mph 18.4 mph N/A   Mostly Cloudy
7:00 PM 41.0 °F 36.4 °F 21.2 °F 45% 29.98 in 25.0 mi NW 6.9 mph - N/A   Mostly Cloudy
8:00 PM 39.2 °F 33.0 °F 23.0 °F 52% 29.99 in 25.0 mi NW 9.2 mph - N/A   Mostly Cloudy
9:00 PM 39.2 °F 33.6 °F 21.2 °F 49% 30.00 in 25.0 mi WNW 8.1 mph - N/A   Mostly Cloudy
10:00 PM 39.2 °F 35.9 °F 23.0 °F 52% 30.00 in 25.0 mi WNW 4.6 mph - N/A   Mostly Cloudy
11:00 PM 39.2 °F 35.0 °F 23.0 °F 52% 30.00 in 25.0 mi NW 5.8 mph - N/A   Mostly Cloudy